Weather History for Cancun, Mexico

Change the Weather History Date:

Friday, May 10, 2013

  Actual Average Record
Temperature  
Mean Temperature 82 °F -  
Max Temperature 86 °F 87 °F - ()
Min Temperature 78 °F 73 °F - ()
Cooling Degree Days 17    
Growing Degree Days 32 (Base 50)    
Moisture  
Dew Point 74 °F    
Average Humidity 76    
Maximum Humidity 89    
Minimum Humidity 66    
Precipitation  
Precipitation 0.00 in - - ()
Sea Level Pressure  
Sea Level Pressure 29.99 in    
Wind  
Wind Speed 11 mph ()    
Max Wind Speed 21 mph    
Max Gust Speed -    
Visibility 7.0 miles    
Events      
T = Trace of Precipitation, MM = Missing Value Source: Averaged Metar Reports

Daily Weather History Graph

Daily Weather History Graph

Search for Another Location

Airport:

Trip Planner

Search our weather history database for the weather conditions in past years. The results will help you decide how hot, cold, wet, or windy it might be!

Date:

Astronomy

May. 10, 2013 Rise Set
Actual Time 6:11 AM CDT 7:16 PM CDT
Civil Twilight 5:48 AM CDT 7:39 PM CDT
Nautical Twilight 5:20 AM CDT 8:07 PM CDT
Astronomical Twilight 4:51 AM CDT 8:36 PM CDT
Moon 6:36 AM CDT (5/10) 8:02 PM CDT (5/10)
Length of Visible Light 13h 51m
Length of Day
13h 04m
New Moon, 0% of the Moon is Illuminated
May 10
New Moon
May 17
First Quarter
May 24
Full
May 31
Last Quarter
Jun 8
New

Hourly Weather History & Observations

Time (CDT) Temp. Heat Index Dew Point Humidity Pressure Visibility Wind Dir Wind Speed Gust Speed Precip Events Conditions
12:46 AM 78.8 °F - 71.6 °F 78% 30.03 in 7.0 mi ESE 9.2 mph - N/A   Clear
1:44 AM 78.8 °F - 71.6 °F 78% 30.02 in 7.0 mi ESE 8.1 mph - N/A   Clear
2:43 AM 78.8 °F - 71.6 °F 78% 30.01 in 7.0 mi East 6.9 mph - N/A   Clear
3:46 AM 78.8 °F - 73.4 °F 83% 29.99 in 7.0 mi ESE 9.2 mph - N/A   Partly Cloudy
4:45 AM 78.8 °F - 73.4 °F 83% 29.98 in 7.0 mi ESE 10.4 mph - N/A   Scattered Clouds
5:44 AM 78.8 °F - 73.4 °F 83% 29.98 in 7.0 mi SE 11.5 mph - N/A   Scattered Clouds
6:43 AM 78.8 °F - 75.2 °F 89% 30.00 in 7.0 mi SE 8.1 mph - N/A   Scattered Clouds
7:41 AM 82.4 °F 89.5 °F 75.2 °F 79% 30.00 in 7.0 mi ESE 10.4 mph - N/A   Mostly Cloudy
8:42 AM 84.2 °F 92.3 °F 75.2 °F 74% 30.02 in 7.0 mi SE 15.0 mph - N/A   Mostly Cloudy
9:41 AM 86.0 °F 95.1 °F 75.2 °F 70% 30.02 in 7.0 mi SE 6.9 mph - N/A   Mostly Cloudy
10:41 AM 86.0 °F 95.1 °F 75.2 °F 70% 30.03 in 7.0 mi SE 16.1 mph - N/A   Mostly Cloudy
11:41 AM 86.0 °F 95.1 °F 75.2 °F 70% 30.03 in 7.0 mi SE 16.1 mph - N/A   Mostly Cloudy
12:42 PM 86.0 °F 93.4 °F 73.4 °F 66% 30.01 in 7.0 mi SE 18.4 mph - N/A   Scattered Clouds
1:42 PM 86.0 °F 93.4 °F 73.4 °F 66% 29.99 in 7.0 mi SSE 15.0 mph - N/A   Mostly Cloudy
2:41 PM 86.0 °F 93.4 °F 73.4 °F 66% 29.96 in 7.0 mi SSE 20.7 mph - N/A   Scattered Clouds
3:44 PM 86.0 °F 95.1 °F 75.2 °F 70% 29.94 in 7.0 mi SE 20.7 mph - N/A   Mostly Cloudy
4:41 PM 84.2 °F 92.3 °F 75.2 °F 74% 29.93 in 7.0 mi SSE 18.4 mph - N/A   Mostly Cloudy
5:42 PM 84.2 °F 92.3 °F 75.2 °F 74% 29.94 in 7.0 mi SE 17.3 mph - N/A   Mostly Cloudy
6:46 PM 82.4 °F 88.2 °F 73.4 °F 74% 29.95 in 7.0 mi SE 15.0 mph - N/A   Mostly Cloudy
7:42 PM 82.4 °F 88.2 °F 73.4 °F 74% 29.97 in 7.0 mi SE 15.0 mph - N/A   Mostly Cloudy
8:43 PM 82.4 °F 89.5 °F 75.2 °F 79% 29.98 in 7.0 mi SE 12.7 mph - N/A   Scattered Clouds
9:46 PM 80.6 °F 86.2 °F 75.2 °F 84% 29.97 in 7.0 mi SE 15.0 mph - N/A   Scattered Clouds
10:41 PM 80.6 °F 85.4 °F 73.4 °F 79% 30.01 in 7.0 mi SE 13.8 mph - N/A   Scattered Clouds
11:47 PM 80.6 °F 85.4 °F 73.4 °F 79% 30.02 in 7.0 mi SE 10.4 mph - N/A   Scattered Clouds